www.pogodaiklimat.ru

Погода и климат >> Архив погоды >> Австралия >> Thargomindah Airport


ПОГОДА в Thargomindah Airport

  • Прогноз погоды в Thargomindah Airport
  • Монитор погоды в Thargomindah Airport
  • Климат города

АРХИВ ПОГОДЫ в Thargomindah Airport

Время (UTC), дата Ветер
(напр.,м/с)
 
Видим.   Явления Облачность Т
(С)
Тd
(С)
f
(%)
Тe
(С)
Тes
(С)
Комфортность P
(гПа)
Po
(гПа)
Тmin
(С)
Tmax
(С)
R
(мм)
R24
(мм)
S
(см)
11 11.12 ЮВ 4 н/о н/о +34.7 +3.3 14 +32 +32 жарко 1010.8 996.1
12 11.12 ЮВ 4 н/о н/о +33.4 +2.3 14 +30 +30 жарко 1011.9 996.8
14 11.12 ЮВ 5 н/о н/о +32.3 +2.4 15 +29 +29 жарко 1011.8 997.0 +39.5
15 11.12 В 4 н/о н/о +31.0 +2.3 16 +28 +28 жарко 1011.7 996.6
17 11.12 В 3 н/о н/о +28.8 +5.0 22 +27 +27 жарко 1010.4 995.7
18 11.12 В 3 н/о н/о +27.8 +6.0 25 +27 +27 жарко 1010.9 995.8
20 11.12 СВ 4 н/о н/о +28.2 +8.0 28 +28 +28 жарко 1011.7 996.9
21 11.12 СВ 5 н/о н/о +30.7 +8.4 25 +30 +30 жарко 1012.7 997.6
23 11.12 С 4 н/о н/о +34.5 +10.4 23 +34 +34 очень
жарко
1013.5 998.7
00 12.12 С 6 н/о н/о +35.9 +8.7 19 +34 +34 очень
жарко
1013.5 998.4
02 12.12 ЮВ 3 н/о н/о +36.8 +6.9 16 +34 +34 очень
жарко
1012.1 997.3 +27.3
03 12.12 В 5 н/о н/о +38.2 +7.0 15 +36 +36 очень
жарко
1011.4 996.3
05 12.12 СВ 3 н/о н/о +38.7 +5.4 13 +36 +36 очень
жарко
1009.2 994.5
06 12.12 ЮВ 2 н/о н/о +39.0 +5.6 13 +36 +36 очень
жарко
1008.9 993.8
08 12.12 ЮВ 4 н/о н/о +39.1 +4.5 12 +36 +36 очень
жарко
1008.2 993.5
09 12.12 В 3 н/о н/о +38.0 +3.7 12 +35 +35 очень
жарко
1008.9 993.8
11 12.12 В 2 н/о н/о +33.8 +3.6 15 +31 +31 жарко 1009.0 994.3
12 12.12 В 2 н/о н/о +32.5 +5.9 19 +30 +30 жарко 1009.8 994.7
14 12.12 В 3 н/о н/о +31.0 +4.7 19 +29 +29 жарко 1009.0 994.3 +40.0
15 12.12 В 3 н/о н/о +30.6 +4.4 19 +29 +29 жарко 1009.0 993.9
17 12.12 СВ 5 н/о н/о +30.7 +5.2 20 +29 +29 жарко 1008.3 993.6
18 12.12 СВ 6 н/о н/о +30.9 +6.7 22 +29 +29 жарко 1008.7 993.6
20 12.12 СВ 5 н/о н/о +29.7 +7.6 25 +29 +29 жарко 1009.5 994.8
21 12.12 С 6 н/о н/о +31.1 +8.2 24 +30 +30 жарко 1010.8 995.7
23 12.12 С 7 н/о н/о +35.4 +9.0 20 +34 +34 очень
жарко
1011.1 996.4
00 13.12 С 5 н/о н/о +36.0 +8.0 18 +34 +34 очень
жарко
1011.2 996.1
02 13.12 С 4 н/о н/о +38.1 +6.0 14 +35 +35 очень
жарко
1009.6 994.9 +29.7
03 13.12 С 5 н/о н/о +39.4 +5.9 13 +37 +37 очень
жарко
1009.0 993.9
05 13.12 З 3 н/о н/о +40.9 +36 +36 очень
жарко
1006.6 991.9
06 13.12 СВ 3 н/о н/о +40.4 +35 +35 очень
жарко
1006.2 991.2
08 13.12 В 4 н/о н/о +39.0 +4.4 12 +36 +36 очень
жарко
1005.7 991.0
09 13.12 В 3 н/о н/о +38.7 +4.2 12 +36 +36 очень
жарко
1006.3 991.3
11 13.12 СВ 3 н/о н/о +34.8 +3.4 14 +32 +32 жарко 1006.4 991.7
12 13.12 СВ 3 н/о н/о +33.5 +3.3 15 +31 +31 жарко 1007.1 992.1
14 13.12 СВ 5 н/о н/о +33.2 +2.1 14 +30 +30 жарко 1006.6 991.9 +42.0
15 13.12 СВ 4 н/о н/о +32.2 +1.3 14 +29 +29 жарко 1006.4 991.4
17 13.12 С 7 н/о н/о +31.8 +2.9 16 +29 +29 жарко 1005.7 991.0
18 13.12 СВ 7 н/о н/о +31.1 +3.2 17 +29 +29 жарко 1006.1 991.1
20 13.12 С 8 н/о н/о +30.3 +4.9 20 +28 +28 жарко 1007.2 992.5
21 13.12 С 9 н/о н/о +31.5 +5.8 20 +30 +30 жарко 1008.3 993.2
23 13.12 С 10 н/о н/о +35.0 +5.4 16 +32 +32 жарко 1008.5 993.8
00 14.12 С 9 н/о н/о +37.5 +5.5 14 +35 +35 очень
жарко
1008.6 993.5
02 14.12 С 5 н/о н/о +38.8 +5.4 13 +36 +36 очень
жарко
1007.2 992.5 +30.1
03 14.12 СЗ 5 н/о н/о +40.8 +5.8 12 +38 +38 очень
жарко
1006.5 991.5
05 14.12 З 3 н/о н/о +41.0 +36 +36 очень
жарко
1004.4 989.8
06 14.12 С 5 н/о н/о +41.4 +36 +36 очень
жарко
1003.9 989.0
08 14.12 СВ 4 н/о н/о +41.4 +36 +36 очень
жарко
1003.3 988.7
09 14.12 СВ 4 н/о н/о +39.7 +3.7 11 +37 +37 очень
жарко
1004.1 989.2
11 14.12 ЮЗ 6 н/о н/о +36.9 +6.0 15 +34 +34 очень
жарко
1005.4 990.7
12 14.12 Ю 7 н/о н/о +36.1 +6.3 16 +34 +34 очень
жарко
1006.6 991.6
14 14.12 ЮВ 5 н/о н/о +33.7 +7.6 20 +32 +32 жарко 1006.4 991.7 +42.7
15 14.12 ЮВ 5 н/о н/о +32.5 +7.4 21 +31 +31 жарко 1006.2 991.2
17 14.12 ЮВ 4 н/о н/о +30.3 +9.2 27 +30 +30 жарко 1005.2 990.5
18 14.12 ЮВ 4 н/о н/о +30.0 +9.5 28 +30 +30 жарко 1005.8 990.8
20 14.12 Ю 6 н/о н/о +30.5 +9.9 28 +30 +30 жарко 1007.6 992.9
21 14.12 ЮВ 5 н/о н/о +31.8 +9.3 25 +31 +31 жарко 1009.1 994.0
23 14.12 Ю 5 н/о н/о +33.4 +9.4 23 +32 +32 жарко 1009.2 994.5
00 15.12 Ю 5 н/о н/о +34.6 +10.4 23 +34 +34 очень
жарко
1009.7 994.6
02 15.12 Ю 7 н/о н/о +34.5 +9.7 22 +33 +33 жарко 1008.8 994.1 +29.8
03 15.12 ЮВ 6 н/о н/о +35.2 +8.9 20 +34 +34 очень
жарко
1008.8 993.7
05 15.12 ЮВ 7 н/о н/о +34.7 +9.2 21 +33 +33 жарко 1006.9 992.2
06 15.12 ЮВ 6 н/о н/о +35.5 +8.3 19 +34 +34 очень
жарко
1006.9 991.9
08 15.12 Ю 4 н/о н/о +35.8 +7.8 18 +34 +34 очень
жарко
1006.6 991.9
09 15.12 ЮВ 3 н/о н/о +35.4 +7.5 18 +33 +33 жарко 1007.0 992.0
11 15.12 ЮВ 1 н/о н/о +31.4 +7.8 23 +30 +30 жарко 1007.7 993.0
12 15.12 СВ 3 н/о н/о +30.1 +7.9 25 +29 +29 жарко 1008.5 993.4
14 15.12 штиль 0 н/о н/о +28.6 +8.3 28 +28 +28 жарко 1007.9 993.2 +36.2
15 15.12 штиль 0 н/о н/о +28.3 +8.6 29 +28 +28 жарко 1007.8 992.7
17 15.12 штиль 0 н/о н/о +26.2 +10.4 37 +27 +27 жарко 1007.2 992.5
18 15.12 В 3 н/о н/о +25.8 +8.3 33 +26 +26 жарко 1008.0 992.9
20 15.12 В 3 н/о н/о +26.9 +8.4 31 +27 +27 жарко 1008.9 994.2
21 15.12 СВ 4 н/о н/о +31.2 +8.8 25 +30 +30 жарко 1010.3 995.2
23 15.12 С 7 н/о н/о +36.1 +5.4 15 +33 +33 жарко 1010.9 996.2
00 16.12 С 6 н/о н/о +37.8 +5.7 14 +35 +35 очень
жарко
1011.0 995.9
02 16.12 С 6 н/о н/о +40.6 +36 +36 очень
жарко
1009.8 995.1 +25.5
03 16.12 С 4 н/о н/о +40.9 +36 +36 очень
жарко
1009.3 994.2
05 16.12 СЗ 7 н/о н/о +42.1 +37 +37 очень
жарко
1007.4 992.7
06 16.12 З 4 н/о н/о +42.0 +37 +37 очень
жарко
1006.8 991.8
08 16.12 СЗ 4 н/о н/о +40.8 +36 +36 очень
жарко
1006.1 991.4
09 16.12 С 2 н/о н/о +39.8 +5.1 12 +37 +37 очень
жарко
1006.8 991.8
11 16.12 С 2 н/о н/о +35.6 +5.0 15 +33 +33 жарко 1007.1 992.4
12 16.12 С 3 н/о н/о +33.6 +4.3 16 +31 +31 жарко 1007.8 992.7
14 16.12 З 4 н/о н/о +37.0 +4.0 13 +34 +34 очень
жарко
1007.5 992.8 +43.4
15 16.12 Ю 5 н/о н/о +35.7 +0.7 11 +32 +32 жарко 1007.7 992.6
17 16.12 З 3 н/о н/о +30.6 +0.1 14 +28 +28 жарко 1006.9 992.2
18 16.12 З 2 н/о н/о +29.0 -0.2 15 +26 +26 жарко 1007.2 992.2
20 16.12 штиль 0 н/о н/о +28.5 +0.3 16 +26 +26 жарко 1008.4 993.7
21 16.12 З 1 н/о н/о +31.4 +1.7 15 +29 +29 жарко 1009.5 994.4
23 16.12 С 6 н/о н/о +37.8 +4.7 13 +35 +35 очень
жарко
1009.7 995.0
00 17.12 С 7 н/о н/о +39.3 +4.7 12 +36 +36 очень
жарко
1010.1 995.0
02 17.12 СЗ 4 н/о н/о +43.0 +38 +38 очень
жарко
1008.6 993.9 +27.1
03 17.12 СЗ 5 н/о н/о +43.0 +38 +38 очень
жарко
1008.0 992.9
05 17.12 З 3 н/о н/о +43.9 +39 +39 очень
жарко
1006.0 991.3
06 17.12 СЗ 3 н/о н/о +44.0 +39 +39 очень
жарко
1005.6 990.6
08 17.12 Ю 2 н/о н/о +43.5 +38 +38 очень
жарко
1004.9 990.2
09 17.12 З 2 н/о н/о +42.1 +37 +37 очень
жарко
1005.6 990.6
11 17.12 СЗ 3 н/о н/о +38.1 +2.5 11 +35 +35 очень
жарко
1006.3 991.6
12 17.12 С 2 н/о н/о +36.9 +2.8 12 +34 +34 очень
жарко
1007.1 992.1
14 17.12 СВ 1 н/о н/о +32.4 +2.5 15 +30 +30 жарко 1006.7 992.0 +44.9
15 17.12 ЮВ 3 н/о н/о +31.6 +3.6 17 +29 +29 жарко 1006.4 991.4
17 17.12 СВ 1 н/о н/о +29.2 +2.5 18 +27 +27 жарко 1005.5 990.8
18 17.12 С 3 н/о н/о +29.9 +4.5 20 +28 +28 жарко 1006.1 991.1
20 17.12 СВ 6 н/о н/о +31.5 +7.9 23 +30 +30 жарко 1007.6 992.9
21 17.12 С 6 н/о н/о +34.0 +7.9 20 +32 +32 жарко 1008.7 993.6
23 17.12 С 9 н/о н/о +37.5 +8.3 17 +36 +36 очень
жарко
1008.9 994.2
00 18.12 С 8 н/о н/о +39.3 +6.9 14 +37 +37 очень
жарко
1008.6 993.5
02 18.12 СЗ 4 н/о н/о +41.5 +36 +36 очень
жарко
1006.7 992.0 +28.6
03 18.12 СЗ 5 н/о н/о +42.3 +37 +37 очень
жарко
1006.1 991.1
05 18.12 ЮВ 4 н/о н/о +43.0 +38 +38 очень
жарко
1003.9 989.3
06 18.12 З 2 н/о н/о +44.0 +39 +39 очень
жарко
1003.6 988.7
08 18.12 СВ 2 н/о н/о +43.6 +39 +39 очень
жарко
1002.7 988.1

 

Местоположение метеостанции Thargomindah Airport (Квинсленд, Австралия): широта -27.98 долгота 143.81 высота над уровнем моря 132 м.

В архиве по умолчанию представлена погода в Thargomindah Airport за последнюю неделю. Архивные данные за месяц целиком и за предыдущие месяцы, начиная с января 2011 года, Вы можете получить, выбрав интересующий диапазон дат из раскрывающегося списка и нажав кнопку "Ввод!".

Внимание! Время в таблицах - всемирное. Для получения местного времени необходимо прибавить поправку, которая в Thargomindah Airport равна 10 ч.

Смотрите также архив погоды в соседних городах и на ближайших метеорологических станциях:

Погода в Ballera Gas Field (Квинсленд, Австралия) (206 км)
Погода в Tibooburra Airport (Новый Южный Уэльс, Австралия) (237 км)
Погода в Charleville Aero (Квинсленд, Австралия) (299 км)
Погода в Bourke Airport Aws (Новый Южный Уэльс, Австралия) (309 км)
Погода в White Cliffs Aws (Новый Южный Уэльс, Австралия) (327 км)
Погода в Moomba Airport (Южная Австралия, Австралия) (355 км)
Погода в Wilcannia Aerodrome (Новый Южный Уэльс, Австралия) (396 км)
Погода в Fowlers Gap Aws (Новый Южный Уэльс, Австралия) (401 км)
Погода в Blackall Airport (Квинсленд, Австралия) (428 км)
Погода в Cobar Mo (Новый Южный Уэльс, Австралия) (435 км)

Пояснения к столбцам:

Ветер - указаны скорость ветра в м/с - средняя за 10 мин, порывы в срок и между сроками (в фигурных скобках) и направление, откуда дует ветер: С - северный, СВ - северо-восточный, В - восточный, ЮВ - юго-восточный, Ю - южный, ЮЗ - юго-западный, З - западный, СЗ - северо-западный.
Видимость - горизонтальная дальность видимости в метрах или километрах. При видимости от 1 до 10 км при отсутствии осадков обычно наблюдается дымка, при ухудшении видимости до 1 км и менее - туман. В сухую погоду видимость может ухудшаться дымом, пылью или мглою.
Явления - указаны атмосферные явления, наблюдавшиеся в срок или в последний час перед сроком; фигурными скобками обозначены явления, наблюдавшиеся между сроками (за 1-3 часа до срока); квадратными скобками обозначены град или гололедные отложения с указанием их диаметра в мм.
Облачность - указаны через наклонную черту общая и нижняя облачность в баллах и высота нижней границы облаков в метрах; квадратными скобками обозначены формы облаков: Ci - перистые, Cs - перисто-слоистые, Cc - перисто-кучевые, Ac - высококучевые, As - высокослоистые, Sc - слоисто-кучевые, Ns - слоисто-дождевые, Cu - кучевые, Cb - кучево-дождевые. Подробнее классификацию облаков см. в Атласе облаков (PDF).
T - Температура воздуха - температура, измеренная на высоте 2 м над землей.
Td - Температура точки росы - температура, при понижении до которой содержащийся в воздухе водяной пар достигнет насыщения.
f - Относительная влажность воздуха - влажноcть воздуха, измеренная на высоте 2 м над землей.
Te - Эффективная температура - температура, которую ощущает одетый по сезону человек в тени. Характеристика душности погоды. При расчете учитывается влияние влажности воздуха и скорости ветра на теплоощущения человека.
Tes - Эффективная температура на солнце - температура, которую ощущает человек, с поправкой на солнечный нагрев. Характеристика знойности погоды. Зависит от высоты солнца над горизонтом, облачности и скорости ветра. Ночью, в пасмурную погоду, а также при ветре 12 м/с и более поправка равна нулю.
P - Атмосферное давление - приведенное к уровню моря атмосферное давление.
Po - Атмосферное давление - измеренное на уровне метеостанции атмосферное давление.
Tmin - Минимальная температура - минимум температуры воздуха на высоте 2 м над землей.
Tmax - Максимальная температура - максимум температуры воздуха на высоте 2 м над землей.
R - Количество осадков - Количество выпавших осадков за период времени, мм. При наведении курсора мыши на число - период времени, за который выпало указанное количество осадков.
R24 - Количество осадков - Количество выпавших осадков за 24 часа, мм.
S - Снежный покров - Высота снежного покрова, см. При наведении курсора мыши на число - состояние снежного покрова и степень покрытия местности в баллах.